Location: Ch�teau-Arnoux
(44.0814°N, 6.0027°E)
Time: 15:14:05
(UTC+00:00)

ATLAS 2AS CENTAUR R/B - Pass Details

Date: 15 November 2019
Orbit: 926 x 1286 km, 63.7° (Epoch: 02 December)

Event Time Altitude Azimuth Distance (km) Brightness Sun altitude
Exits shadow 04:58:03 - 326° (NW) 3,301 4.9 -16.6°
Reaches altitude 10° 04:58:20 10° 326° (NW) 3,204 4.8 -16.6°
Maximum altitude 05:06:02 69° 49° (NE) 1,239 3.1 -15.2°
Drops below altitude 10° 05:13:04 10° 133° (SE) 2,937 5.9 -14.0°
Sets 05:15:37 0° 136° (SE) 3,840 6.6 -13.5°
